Location: Stull Observatory
(42.2506°N, 77.7903°W)
Time: 14:06:20
(UTC-04:00)

Okean O Rocket - Visible Passes

Search period start: 23 July 2014 00:00
Search period end: 02 August 2014 00:00
Orbit: 626 x 646 km, 98.0° (Epoch: 23 July)

Date Brightness Start Highest point End Pass type
(mag) Time Alt. Az. Time Alt. Az. Time Alt. Az.
23 Jul 1.9 04:10:44 10° NNE 04:15:11 67° ESE 04:18:37 16° S visible
24 Jul 4.3 02:59:27 10° ENE 03:00:36 11° E 03:01:45 10° ESE visible
24 Jul 1.6 04:33:05 10° N 04:37:31 71° WNW 04:41:09 15° SSW visible
25 Jul 3.9 03:20:01 10° NE 03:23:11 19° E 03:26:11 11° SE visible
25 Jul 2.2 04:55:36 10° N 04:59:47 41° WNW 05:03:41 11° SW visible
26 Jul 3.1 03:41:41 10° NNE 03:45:41 32° E 03:48:42 15° SSE visible
26 Jul 2.9 05:18:22 10° NNW 05:21:58 25° WNW 05:25:32 10° WSW visible
27 Jul 2.2 04:03:44 10° NNE 04:08:07 56° E 04:11:14 18° S visible
28 Jul 1.6 04:26:00 10° NNE 04:30:28 84° WNW 04:33:46 18° SSW visible
29 Jul 4.1 03:13:19 10° NE 03:16:03 16° E 03:18:46 10° SE visible
29 Jul 2.0 04:48:28 10° N 04:52:45 48° WNW 04:56:17 14° SW visible
30 Jul 3.4 03:34:48 10° NE 03:38:34 27° E 03:41:19 15° SE visible
30 Jul 2.7 05:11:09 10° N 05:14:57 29° WNW 05:18:43 10° SW visible
31 Jul 2.4 03:56:44 10° NNE 04:01:01 46° E 04:03:50 20° SSE visible
01 Aug 1.6 04:18:57 10° NNE 04:23:24 82° ESE 04:26:21 21° S visible
